Regional Weather Roundup
Issued by NWS

Home | Current Version | Previous Version | Text Only | Print | Product List | Glossary Off
Versions: 1 2 3 4 5 6 7 8 9 10 11 12 13 14 15 16 17 18 19 20 21 22 23 24 25 26 27 28 29 30 31 32 33 34 35 36 37 38 39 40 41 42 43 44 45 46 47 48 49 50

291
ASUS45 KBOI 190210
RWRID

IDAHO REGIONAL WEATHER ROUNDUP
NATIONAL WEATHER SERVICE BOISE ID
700 PM MST SAT NOV 18 2017

NOTE: "FAIR" INDICATES FEW OR NO CLOUDS BELOW 12000 FEET
WITH NO SIGNIFICANT WEATHER AND/OR OBSTRUCTIONS TO VISIBILITY

IDZ012-014-190300-
SOUTHWEST IDAHO


CITY           SKY/WX    TMP DP  RH WIND       PRES   REMARKS
BOISE          MOCLDY    38  22  52 SE9       30.28F WCI  31
CALDWELL       MOCLDY    39  25  57 SE9       30.29S WCI  33
MOUNTAIN HOME  MOCLDY    32  24  74 E13       30.29F WCI  22
$$

IDZ016-017-190300-
SOUTHCENTRAL IDAHO


CITY           SKY/WX    TMP DP  RH WIND       PRES   REMARKS
BURLEY         PTCLDY    32  23  69 NE3       30.30F
JEROME         PTCLDY    34  24  67 NE14      30.30F WCI  25
TWIN FALLS     PTCLDY    26  23  88 E5        30.30S WCI  20
$$

IDZ019>023-190300-
SOUTHEAST IDAHO


CITY           SKY/WX    TMP DP  RH WIND       PRES   REMARKS
IDAHO FALLS    CLOUDY    31  23  72 SE6       30.36S WCI  25
POCATELLO      PTCLDY    34  19  54 CALM      30.34F
REXBURG        CLOUDY    31  23  72 SE7       30.36S WCI  24
$$

IDZ006-010-011-018-031-032-190300-
CENTRAL IDAHO MOUNTAINS


CITY           SKY/WX    TMP DP  RH WIND       PRES   REMARKS
MCCALL         PTCLDY    27  20  75 CALM      30.24R
HAILEY         CLEAR     27  19  74 NW6       30.35R WCI  20
STANLEY          N/A     12   8  84 CALM      30.27R
SALMON         CLOUDY    28  19  69 CALM      30.28S
CHALLIS        CLEAR     24  16  71 SW3       30.29R
$$

IDZ002-004-006-007-026-190300-
NORTHERN IDAHO


CITY           SKY/WX    TMP DP  RH WIND       PRES   REMARKS
LEWISTON       PTCLDY    42  31  64 SE5       30.18F
LOWELL           N/A     35  34  96 CALM      30.27R
COEUR D`ALENE  PTCLDY    30  28  92 NE3       30.19F
MULLAN PASS    CLEAR     22  18  85 VRB6      30.11R WCI  14
$$




USA.gov is the U.S. government's official web portal to all federal, state and local government web resources and services.